Tracking 20621 objects as of 31-Mar-2020
HD Live streaming from Space Station
objects crossing your sky now

YZ-1 R/B

Track YZ-1 R/B now!


NORAD ID: 44544
Int'l Code: 2019-061C
Perigee: 22,042.1 km
Apogee: 22,217.4 km
Inclination: 55.0 °
Period: 798.1 minutes
Semi major axis: 28500 km
RCS: Unknown
Launch date: September 22, 2019
Source: People's Republic of China (PRC)
Launch site: Xichang Space Center, China (XSC)

Note: This is a ROCKET BODY
aabbcc
Your satellite tracking list
Your tracking list is empty




NASA's NSSDC Master Catalog

Two Line Element Set (TLE):
1 44544U 19061C   20088.91289283 +.00000036 +00000-0 +00000-0 0  9997
2 44544 055.0232 260.1670 0030755 234.9609 124.7178 01.80433670003404
Source of the keplerian elements: AFSPC